Durango, CO

8:01 AM MDT on March 25, 2017 (GMT -0600)
Durango-La Plata County

Weather History for KDRO - August, 2013

Change the Weather History Date:

Friday, August 23, 2013

  Actual Average Record
Temperature  
Mean Temperature 70 °F 66 °F  
Max Temperature 86 °F 82 °F 92 °F (1985)
Min Temperature 54 °F 50 °F 40 °F (1974)
Degree Days  
Heating Degree Days 0 1  
Month to date heating degree days 13 6  
Since 1 June heating degree days 53 131  
Since 1 July heating degree days 13 16  
Cooling Degree Days 5 2  
Month to date cooling degree days 69 76  
Year to date cooling degree days 315 227  
Since 1 June cooling degree days 315 226  
Growing Degree Days 20 (Base 50)    
Moisture  
Dew Point 44 °F    
Average Humidity 47    
Maximum Humidity 83    
Minimum Humidity 10    
Precipitation  
Precipitation 0.02 in 0.06 in 0.86 in (1986)
Month to date precipitation 1.47 1.57  
Year to date precipitation 7.31 9.36  
Sea Level Pressure  
Sea Level Pressure 30.00 in    
Wind  
Wind Speed 7 mph (SSE)    
Max Wind Speed 28 mph    
Max Gust Speed 36 mph    
Visibility 10 miles    
Events Rain , Thunderstorm    
T = Trace of Precipitation, MM = Missing Value Source: NWS Daily Summary

Daily Weather History Graph

Daily Weather History Graph

Search for Another Location

Airport or City:

Trip Planner

Search our weather history database for the weather conditions in past years. The results will help you decide how hot, cold, wet, or windy it might be!

Date:

Astronomy

Aug. 23, 2013 Rise Set
Actual Time 6:34 AM MDT 7:51 PM MDT
Civil Twilight 6:07 AM MDT 8:18 PM MDT
Nautical Twilight 5:34 AM MDT 8:51 PM MDT
Astronomical Twilight 5:01 AM MDT 9:25 PM MDT
Moon 9:18 PM MDT (8/23) 9:27 AM MDT (8/23)
Length of Visible Light 14h 11m
Length of Day
13h 17m
Waning Gibbous, 91% of the Moon is Illuminated
Aug 23
Waning Gibbous
Aug 28
Last Quarter
Sep 5
New
Sep 12
First Quarter
Sep 19
Full

Hourly Weather History & Observations

Time (MDT) Temp. Dew Point Humidity Pressure Visibility Wind Dir Wind Speed Gust Speed Precip Events Conditions
12:13 AM 66.2 °F 46.4 °F 49% 30.25 in 10.0 mi Calm Calm - N/A   Mostly Cloudy
12:53 AM 66.0 °F 50.0 °F 56% 29.96 in 10.0 mi ENE 3.5 mph - N/A   Mostly Cloudy
1:04 AM 64.4 °F 50.0 °F 59% 30.26 in 10.0 mi ESE 3.5 mph - N/A Thunderstorm Scattered Clouds
1:53 AM 64.0 °F 52.0 °F 65% 29.98 in 10.0 mi NE 9.2 mph - 0.00 in Rain , Thunderstorm Light Thunderstorms and Rain
2:53 AM 61.0 °F 55.0 °F 81% 29.96 in 10.0 mi NNE 6.9 mph - 0.02 in Rain , Thunderstorm Light Rain
3:18 AM 60.8 °F 55.4 °F 82% 30.26 in 10.0 mi SSE 4.6 mph - 0.00 in   Mostly Cloudy
3:31 AM 60.8 °F 55.4 °F 82% 30.26 in 10.0 mi ESE 4.6 mph - 0.00 in Thunderstorm Mostly Cloudy
3:53 AM 59.0 °F 55.0 °F 87% 30.01 in 10.0 mi SSW 4.6 mph - 0.00 in Thunderstorm Thunderstorm
4:49 AM 57.2 °F 53.6 °F 88% 30.26 in 10.0 mi ENE 6.9 mph - N/A   Partly Cloudy
4:53 AM 57.0 °F 54.0 °F 89% 29.99 in 10.0 mi NE 8.1 mph - N/A   Partly Cloudy
5:53 AM 57.9 °F 51.1 °F 78% 29.98 in 10.0 mi Calm Calm - N/A   Clear
6:53 AM 55.0 °F 50.0 °F 83% 30.01 in 10.0 mi Variable 3.5 mph - N/A   Clear
7:53 AM 59.0 °F 52.0 °F 78% 30.02 in 10.0 mi Calm Calm - N/A   Mostly Cloudy
8:53 AM 64.0 °F 51.1 °F 63% 30.03 in 10.0 mi Calm Calm - N/A   Mostly Cloudy
9:53 AM 71.1 °F 51.1 °F 49% 30.02 in 10.0 mi East 6.9 mph - N/A   Mostly Cloudy
10:53 AM 75.0 °F 46.9 °F 37% 30.01 in 10.0 mi East 9.2 mph - N/A   Clear
11:53 AM 77.0 °F 43.0 °F 30% 29.98 in 10.0 mi Variable 4.6 mph - N/A   Mostly Cloudy
12:53 PM 79.0 °F 42.1 °F 27% 29.95 in 10.0 mi Calm Calm - N/A   Mostly Cloudy
1:53 PM 80.1 °F 39.0 °F 23% 29.93 in 10.0 mi Calm Calm - N/A   Scattered Clouds
2:53 PM 82.9 °F 37.0 °F 19% 29.89 in 10.0 mi South 5.8 mph - N/A   Partly Cloudy
3:53 PM 84.9 °F 32.0 °F 15% 29.87 in 10.0 mi SE 12.7 mph 18.4 mph N/A   Clear
4:40 PM 84.2 °F 28.4 °F 13% 30.14 in 10.0 mi South 15.0 mph 19.6 mph N/A   Partly Cloudy
4:53 PM 82.9 °F 28.0 °F 14% 29.86 in 10.0 mi SSW 6.9 mph - N/A   Partly Cloudy
5:53 PM 84.0 °F 23.0 °F 11% 29.85 in 10.0 mi SSW 12.7 mph 17.3 mph N/A   Clear
6:53 PM 82.0 °F 23.0 °F 11% 29.85 in 10.0 mi South 8.1 mph 17.3 mph N/A   Clear
7:53 PM 77.0 °F 26.1 °F 15% 29.86 in 10.0 mi South 8.1 mph - N/A   Clear
8:53 PM 70.0 °F 28.0 °F 21% 29.90 in 10.0 mi Calm Calm - N/A   Clear
9:53 PM 72.0 °F 42.1 °F 34% 29.90 in 10.0 mi SSW 23.0 mph 31.1 mph N/A   Clear
10:53 PM 69.1 °F 44.1 °F 40% 29.93 in 10.0 mi SW 15.0 mph 21.9 mph N/A   Clear
11:53 PM 68.0 °F 45.0 °F 43% 29.94 in 10.0 mi West 12.7 mph - N/A   Partly Cloudy